Weather History for YBOK - January, 2014

Change the Weather History Date:

Friday, January 17, 2014

  Actual Average Record
Temperature  
Mean Temperature 75 °F -  
Max Temperature 87 °F - - ()
Min Temperature 63 °F - - ()
Cooling Degree Days 10    
Growing Degree Days 25 (Base 50)    
Moisture  
Dew Point 57 °F    
Average Humidity 55    
Maximum Humidity 88    
Minimum Humidity 19    
Precipitation  
Precipitation 0.00 in - - ()
Sea Level Pressure  
Sea Level Pressure 29.98 in    
Wind  
Wind Speed 11 mph ()    
Max Wind Speed 17 mph    
Max Gust Speed -    
Visibility 6.2 miles    
Events      
T = Trace of Precipitation, MM = Missing Value Source: Averaged Metar Reports

Daily Weather History Graph

Daily Weather History Graph

Search for Another Location

Airport or City:

Trip Planner

Search our weather history database for the weather conditions in past years. The results will help you decide how hot, cold, wet, or windy it might be!

Date:

Astronomy

Jan. 17, 2014 Rise Set
Actual Time 5:13 AM AEST 6:52 PM AEST
Civil Twilight 4:47 AM AEST 7:18 PM AEST
Nautical Twilight 4:16 AM AEST 7:49 PM AEST
Astronomical Twilight 3:43 AM AEST 8:21 PM AEST
Moon 7:17 PM AEST (1/17) 5:54 AM AEST (1/17)
Length of Visible Light 14h 30m
Length of Day
13h 39m
Full, 99% of the Moon is Illuminated
Jan 17
Full
Jan 24
Last Quarter
Jan 31
New
Feb 7
First Quarter
Feb 15
Full

Hourly Weather History & Observations

Time (AEST) Temp. Heat Index Dew Point Humidity Pressure Visibility Wind Dir Wind Speed Gust Speed Precip Events Conditions
12:00 AM 69 °F - 61 °F 68% 30.00 in - East 12.7 mph - -  
12:00 AM 68.0 °F - 60.8 °F 78% 30.06 in 6.2 mi East 12.7 mph - N/A   Scattered Clouds
1:00 AM 68 °F - 62 °F 74% 29.98 in - East 10.4 mph - -  
1:00 AM 68.0 °F - 60.8 °F 78% 30.04 in 6.2 mi East 10.4 mph - N/A   Unknown
2:00 AM 68.0 °F - 62.6 °F 83% 30.01 in 6.2 mi ENE 8.1 mph - N/A   Overcast
3:00 AM 67 °F - 62 °F 78% 29.95 in - ESE 9.2 mph - -  
3:00 AM 68.0 °F - 62.6 °F 83% 30.01 in 6.2 mi ESE 9.2 mph - N/A   Mostly Cloudy
4:00 AM 65 °F - 61 °F 82% 29.95 in - ENE 8.1 mph - -  
4:00 AM 66.2 °F - 60.8 °F 83% 30.01 in 6.2 mi ENE 8.1 mph - N/A   Unknown
5:00 AM 62.6 °F - 59.0 °F 88% 30.01 in 6.2 mi North 3.5 mph - N/A   Unknown
6:00 AM 67 °F - 64 °F 86% 29.99 in - ESE 5.8 mph - -   Overcast
6:00 AM 68.0 °F - 64.4 °F 88% 30.04 in 6.2 mi ESE 5.8 mph - N/A   Mostly Cloudy
7:00 AM 71 °F - 62 °F 67% 30.00 in - East 12.7 mph - -  
7:00 AM 71.6 °F - 62.6 °F 73% 30.04 in 6.2 mi East 12.7 mph - N/A   Mostly Cloudy
8:00 AM 73.4 °F - 60.8 °F 65% 30.04 in 6.2 mi East 13.8 mph - N/A   Scattered Clouds
9:00 AM 76 °F - 59 °F 45% 29.99 in - East 13.8 mph - -  
9:00 AM 77.0 °F - 59.0 °F 54% 30.04 in 6.2 mi East 13.8 mph - N/A   Scattered Clouds
10:00 AM 78 °F - 58 °F 41% 29.99 in - ESE 15.0 mph - -  
10:00 AM 78.8 °F - 59.0 °F 51% 30.04 in 6.2 mi ESE 15.0 mph - N/A   Scattered Clouds
11:00 AM 78.8 °F - 59.0 °F 51% 30.04 in 6.2 mi ESE 13.8 mph - N/A   Scattered Clouds
12:00 PM 85 °F - 54 °F 24% 29.95 in - ENE 13.8 mph - -  
12:00 PM 84.2 °F 82.8 °F 53.6 °F 35% 30.01 in - ENE 13.8 mph - N/A   Clear
1:00 PM 85 °F - 53 °F 23% 29.92 in - East 13.8 mph - -  
1:00 PM 84.2 °F - 51.8 °F 33% 29.98 in - East 13.8 mph - N/A   Clear
2:00 PM 87.8 °F 85.7 °F 53.6 °F 31% 29.95 in 6.2 mi ENE 13.8 mph - N/A   Scattered Clouds
3:00 PM 87 °F - 51 °F 19% 29.87 in - East 11.5 mph - -  
3:00 PM 87.8 °F - 51.8 °F 29% 29.92 in 6.2 mi East 11.5 mph - N/A   Scattered Clouds
4:00 PM 87 °F - 51 °F 19% 29.86 in - East 17.3 mph - -  
4:00 PM 87.8 °F - 51.8 °F 29% 29.92 in 6.2 mi East 17.3 mph - N/A   Unknown
5:00 PM 86.0 °F - 50.0 °F 29% 29.92 in 6.2 mi ENE 13.8 mph - N/A   Unknown
6:00 PM 83 °F - 51 °F 22% 29.87 in - ENE 16.1 mph - -  
6:00 PM 82.4 °F - 50.0 °F 32% 29.92 in 6.2 mi ENE 16.1 mph - N/A   Unknown
7:00 PM 78 °F - 53 °F 32% 29.89 in - ENE 13.8 mph - -  
7:00 PM 78.8 °F - 53.6 °F 42% 29.95 in 6.2 mi ENE 13.8 mph - N/A   Unknown
8:00 PM 75.2 °F - 57.2 °F 53% 29.98 in 6.2 mi NE 15.0 mph - N/A   Unknown
9:00 PM 72 °F - 57 °F 49% 29.94 in - ENE 13.8 mph - -  
9:00 PM 71.6 °F - 57.2 °F 60% 30.01 in 6.2 mi ENE 13.8 mph - N/A   Unknown
10:00 PM 69 °F - 59 °F 64% 29.95 in - ENE 16.1 mph - -  
10:00 PM 69.8 °F - 59.0 °F 68% 30.01 in 6.2 mi ENE 16.1 mph - N/A   Unknown
11:00 PM 68.0 °F - 59.0 °F 73% 30.01 in 6.2 mi ENE 13.8 mph - N/A   Unknown